• în România
  • Lista ţărilor
  • Pe 7 zile
  • Temperatura apei
  • Hartă satelitară
  • Meteo pe hartă
  • Widget-uri
  • user-avatar
    Intrare

    Meteo pe oră la Reading

    Astăzi, 23 Septembrie, Duminică

    Timp Temperatura Precipitaţii Vânt Presiune Umiditate
    00:00 +10°C° 0 mm 3 m/s 756 mmHg 92%
    01:00 +10°C° 0 mm 3 m/s 756 mmHg 92%
    02:00 +10°C° 0 mm 3 m/s 756 mmHg 91%
    03:00 +10°C° 0 mm 3 m/s 756 mmHg 91%
    04:00 +10°C° 0.2 mm 4 m/s 756 mmHg 91%
    05:00 +10°C° 0.2 mm 4 m/s 756 mmHg 91%
    06:00 +10°C° 0 mm 4 m/s 756 mmHg 90%
    07:00 +8°C° 1.7 mm 4 m/s 756 mmHg 89%
    08:00 +8°C° 1.7 mm 5 m/s 757 mmHg 89%
    09:00 +8°C° 1.7 mm 6 m/s 757 mmHg 89%
    10:00 +8°C° 0.7 mm 6 m/s 758 mmHg 83%
    11:00 +9°C° 0.7 mm 6 m/s 759 mmHg 78%
    12:00 +10°C° 0.7 mm 6 m/s 760 mmHg 73%
    13:00 +11°C° 0 mm 6 m/s 761 mmHg 67%
    14:00 +13°C° 0 mm 6 m/s 762 mmHg 60%
    15:00 +14°C° 0 mm 7 m/s 762 mmHg 54%
    16:00 +13°C° 0 mm 6 m/s 763 mmHg 58%
    17:00 +12°C° 0 mm 5 m/s 764 mmHg 61%
    18:00 +11°C° 0 mm 4 m/s 765 mmHg 65%
    19:00 +10°C° 0 mm 4 m/s 766 mmHg 68%
    20:00 +8°C° 0 mm 4 m/s 767 mmHg 72%
    21:00 +7°C° 0 mm 4 m/s 768 mmHg 76%
    22:00 +8°C° 0 mm 3 m/s 769 mmHg 79%
    23:00 +8°C° 0 mm 3 m/s 769 mmHg 82%

    Mâine, 24 Septembrie, Luni

    Timp Temperatura Precipitaţii Vânt Presiune Umiditate
    00:00 +7°C° 0 mm 3 m/s 770 mmHg 85%
    01:00 +7°C° 0 mm 3 m/s 771 mmHg 86%
    02:00 +7°C° 0 mm 3 m/s 771 mmHg 88%
    03:00 +6°C° 0 mm 2 m/s 772 mmHg 89%
    04:00 +6°C° 0 mm 2 m/s 772 mmHg 89%
    05:00 +6°C° 0 mm 2 m/s 773 mmHg 90%
    06:00 +6°C° 0 mm 2 m/s 773 mmHg 90%
    07:00 +7°C° 0 mm 2 m/s 773 mmHg 82%
    08:00 +9°C° 0 mm 3 m/s 774 mmHg 75%
    09:00 +11°C° 0 mm 3 m/s 774 mmHg 67%
    10:00 +12°C° 0 mm 3 m/s 774 mmHg 60%
    11:00 +13°C° 0 mm 3 m/s 775 mmHg 53%
    12:00 +14°C° 0 mm 3 m/s 775 mmHg 47%
    13:00 +15°C° 0 mm 2 m/s 775 mmHg 44%
    14:00 +15°C° 0 mm 2 m/s 774 mmHg 42%
    15:00 +16°C° 0 mm 2 m/s 774 mmHg 40%
    16:00 +14°C° 0 mm 2 m/s 774 mmHg 44%
    17:00 +13°C° 0 mm 2 m/s 774 mmHg 49%
    18:00 +11°C° 0 mm 1 m/s 774 mmHg 53%
    19:00 +11°C° 0 mm 1 m/s 774 mmHg 54%
    20:00 +10°C° 0 mm 1 m/s 775 mmHg 56%
    21:00 +10°C° 0 mm 1 m/s 775 mmHg 58%
    22:00 +9°C° 0 mm 1 m/s 775 mmHg 59%
    23:00 +9°C° 0 mm 1 m/s 775 mmHg 61%

    Poimâine, 25 Septembrie, Marţi

    Timp Temperatura Precipitaţii Vânt Presiune Umiditate
    00:00 +9°C° 0 mm 1 m/s 775 mmHg 62%
    01:00 +8°C° 0 mm 1 m/s 775 mmHg 63%
    02:00 +8°C° 0 mm 1 m/s 774 mmHg 64%
    03:00 +8°C° 0 mm 1 m/s 774 mmHg 65%
    04:00 +8°C° 0 mm 1 m/s 774 mmHg 65%
    05:00 +8°C° 0 mm 1 m/s 774 mmHg 65%
    06:00 +8°C° 0 mm 1 m/s 774 mmHg 65%
    07:00 +8°C° 0 mm 2 m/s 774 mmHg 62%
    08:00 +10°C° 0 mm 2 m/s 774 mmHg 59%
    09:00 +12°C° 0 mm 3 m/s 774 mmHg 56%
    10:00 +13°C° 0 mm 3 m/s 774 mmHg 55%
    11:00 +16°C° 0 mm 3 m/s 774 mmHg 54%
    12:00 +17°C° 0 mm 3 m/s 774 mmHg 52%
    13:00 +17°C° 0 mm 4 m/s 773 mmHg 53%
    14:00 +17°C° 0 mm 4 m/s 772 mmHg 53%
    15:00 +17°C° 0 mm 4 m/s 772 mmHg 54%
    16:00 +14°C° 0 mm 3 m/s 772 mmHg 59%
    17:00 +13°C° 0 mm 3 m/s 772 mmHg 65%
    18:00 +13°C° 0 mm 2 m/s 772 mmHg 70%
    19:00 +12°C° 0 mm 2 m/s 772 mmHg 72%
    20:00 +10°C° 0 mm 2 m/s 772 mmHg 74%
    21:00 +10°C° 0 mm 2 m/s 772 mmHg 76%
    22:00 +9°C° 0 mm 2 m/s 771 mmHg 77%
    23:00 +9°C° 0 mm 2 m/s 771 mmHg 78%

    26 Septembrie, Miercuri

    Timp Temperatura Precipitaţii Vânt Presiune Umiditate
    00:00 +9°C° 0 mm 2 m/s 771 mmHg 79%
    01:00 +9°C° 0 mm 2 m/s 771 mmHg 79%
    02:00 +9°C° 0 mm 2 m/s 770 mmHg 80%
    03:00 +9°C° 0 mm 2 m/s 770 mmHg 80%
    04:00 +9°C° 0 mm 2 m/s 770 mmHg 80%
    05:00 +8°C° 0 mm 2 m/s 770 mmHg 81%
    06:00 +8°C° 0 mm 2 m/s 770 mmHg 81%
    07:00 +10°C° 0 mm 2 m/s 770 mmHg 75%
    08:00 +13°C° 0 mm 2 m/s 770 mmHg 68%
    09:00 +14°C° 0 mm 3 m/s 770 mmHg 62%
    10:00 +17°C° 0 mm 3 m/s 770 mmHg 56%
    11:00 +18°C° 0 mm 3 m/s 770 mmHg 51%
    12:00 +19°C° 0 mm 3 m/s 769 mmHg 45%
    13:00 +20°C° 0 mm 3 m/s 769 mmHg 45%
    14:00 +20°C° 0 mm 3 m/s 769 mmHg 45%
    15:00 +20°C° 0 mm 3 m/s 768 mmHg 45%
    16:00 +19°C° 0 mm 3 m/s 768 mmHg 51%
    17:00 +17°C° 0 mm 3 m/s 768 mmHg 57%
    18:00 +16°C° 0 mm 2 m/s 768 mmHg 63%
    19:00 +15°C° 0 mm 2 m/s 768 mmHg 66%
    20:00 +14°C° 0 mm 2 m/s 768 mmHg 68%
    21:00 +13°C° 0 mm 2 m/s 769 mmHg 71%
    22:00 +13°C° 0 mm 2 m/s 768 mmHg 72%
    23:00 +13°C° 0 mm 1 m/s 768 mmHg 73%

    27 Septembrie, Joi

    Timp Temperatura Precipitaţii Vânt Presiune Umiditate
    00:00 +12°C° 0 mm 1 m/s 768 mmHg 74%
    01:00 +12°C° 0 mm 1 m/s 768 mmHg 74%
    02:00 +12°C° 0 mm 1 m/s 767 mmHg 74%
    03:00 +12°C° 0 mm 1 m/s 767 mmHg 75%
    04:00 +11°C° 0 mm 1 m/s 767 mmHg 74%
    05:00 +11°C° 0 mm 1 m/s 767 mmHg 74%
    06:00 +11°C° 0 mm 1 m/s 767 mmHg 74%
    07:00 +13°C° 0 mm 1 m/s 766 mmHg 67%
    08:00 +15°C° 0 mm 2 m/s 766 mmHg 61%
    09:00 +17°C° 0 mm 2 m/s 766 mmHg 54%
    10:00 +18°C° 0 mm 2 m/s 765 mmHg 50%
    11:00 +20°C° 0 mm 3 m/s 765 mmHg 46%
    12:00 +21°C° 0 mm 3 m/s 765 mmHg 42%
    13:00 +21°C° 0 mm 3 m/s 764 mmHg 43%
    14:00 +21°C° 0 mm 3 m/s 764 mmHg 44%
    15:00 +22°C° 0 mm 3 m/s 763 mmHg 45%
    16:00 +20°C° 0 mm 3 m/s 763 mmHg 52%
    17:00 +18°C° 0 mm 2 m/s 763 mmHg 58%
    18:00 +16°C° 0 mm 2 m/s 763 mmHg 65%
    19:00 +16°C° 0 mm 2 m/s 763 mmHg 68%
    20:00 +15°C° 0 mm 2 m/s 763 mmHg 71%
    21:00 +14°C° 0 mm 1 m/s 763 mmHg 74%
    22:00 +14°C° 0 mm 2 m/s 763 mmHg 76%
    23:00 +13°C° 0 mm 2 m/s 763 mmHg 77%

    28 Septembrie, Vineri

    Timp Temperatura Precipitaţii Vânt Presiune Umiditate
    00:00 +12°C° 0 mm 2 m/s 763 mmHg 79%
    01:00 +12°C° 0 mm 2 m/s 763 mmHg 79%
    02:00 +11°C° 0 mm 3 m/s 763 mmHg 80%
    03:00 +10°C° 0 mm 3 m/s 763 mmHg 81%
    04:00 +10°C° 0 mm 3 m/s 763 mmHg 84%
    05:00 +10°C° 0 mm 3 m/s 763 mmHg 87%
    06:00 +9°C° 0 mm 3 m/s 763 mmHg 90%
    07:00 +11°C° 0 mm 3 m/s 763 mmHg 86%
    08:00 +12°C° 0 mm 4 m/s 763 mmHg 83%
    09:00 +14°C° 0 mm 4 m/s 764 mmHg 79%
    10:00 +15°C° 0 mm 5 m/s 764 mmHg 77%
    11:00 +15°C° 0 mm 5 m/s 764 mmHg 75%
    12:00 +16°C° 0 mm 6 m/s 764 mmHg 72%
    13:00 +15°C° 0.1 mm 6 m/s 764 mmHg 74%
    14:00 +14°C° 0.1 mm 6 m/s 765 mmHg 76%
    15:00 +12°C° 0.1 mm 7 m/s 765 mmHg 77%
    16:00 +13°C° 0 mm 6 m/s 765 mmHg 76%
    17:00 +11°C° 0 mm 6 m/s 765 mmHg 75%
    18:00 +12°C° 0 mm 5 m/s 766 mmHg 75%
    19:00 +10°C° 0 mm 5 m/s 766 mmHg 75%
    20:00 +9°C° 0 mm 5 m/s 767 mmHg 75%
    21:00 +9°C° 0 mm 5 m/s 767 mmHg 75%
    22:00 +8°C° 0 mm 5 m/s 767 mmHg 76%
    23:00 +8°C° 0 mm 5 m/s 767 mmHg 78%
    Arată mai mult